Location: Bon Acre
(42.6442°N, 73.5758°W)
Time: 16:47:01
(UTC+00:00)

CZ-4C R/B - Pass Details

Date: 14 December 2025
Orbit: 484 x 1495 km, 63.4° (Epoch: 16 January)

Event Time Altitude Azimuth Distance (km) Brightness Sun altitude
Rises 22:36:50 0° 318° (NW) 3,868 5.9 -13.3°
Reaches altitude 10° 22:39:24 10° 312° (NW) 3,045 5.5 -13.8°
Maximum altitude 22:46:28 46° 243° (WSW) 1,722 4.3 -15.0°
Drops below altitude 10° 22:54:48 10° 175° (S) 3,575 5.6 -16.5°
Sets 22:58:04 0° 169° (S) 4,594 6.1 -17.1°
